Location: Amanico Ergina Village
(37.7824°N, 122.4366°W)
Time: 21:41:23
(UTC+00:00)

Meteor PRIRODA - Pass Details

Date: 29 October 2020
Orbit: 491 x 509 km, 97.6° (Epoch: 24 November)

Event Time Altitude Azimuth Distance (km) Brightness Sun altitude
Rises 13:11:41 0° 16° (NNE) 2,585 7.4 -16.5°
Reaches altitude 10° 13:13:48 10° 20° (NNE) 1,701 6.5 -16.1°
Maximum altitude 13:17:25 58° 101° (E) 584 4.2 -15.4°
Drops below altitude 10° 13:21:01 10° 181° (S) 1,698 6.4 -14.7°
Sets 13:23:07 0° 185° (S) 2,580 7.3 -14.3°
